FW6147 Weather Reports


time (UTC)temp
F
wind
direction
speed
knots
gust
knots
rain 1hr
in
rain 24hr
in
rain mn
in
humidity
%
barometer
mb
20260502162556 63 66 2.6 7.8 0.00 0.00 0.00 55 1022.2
20260502162053 63 39 0.9 7.8 0.00 0.00 0.00 56 1022.2
20260502161605 63 53 3.5 7.8 0.00 0.00 0.00 55 1022.2
20260502161053 63 37 4.3 7.8 0.00 0.00 0.00 58 1022.2
20260502160557 62 31 5.2 10.4 0.00 0.00 0.00 60 1022.2
20260502160106 62 72 6.1 10.4 0.00 0.00 0.00 60 1022.2
20260502152055 62 83 5.2 11.3 0.00 0.00 0.00 57 1022.0
20260502151611 63 99 5.2 9.6 0.00 0.00 0.00 58 1021.8
20260502151055 63 98 5.2 9.6 0.00 0.00 0.00 59 1021.6
20260502150555 62 64 6.1 9.6 0.00 0.00 0.00 60 1021.6
20260502150130 62 49 5.2 8.7 0.00 0.00 0.00 64 1021.6
20260502130557 52 0 0.0 0.0 0.00 0.01 0.00 80 1020.1
20260502130105 52 0 0.0 0.0 0.00 0.01 0.00 80 1020.2
20260502123553 53 0 0.0 2.6 0.00 0.01 0.00 79 1019.9
20260502123054 53 0 0.0 5.2 0.00 0.01 0.00 79 1019.8
20260502122553 53 0 0.9 6.1 0.00 0.01 0.00 78 1019.7
20260502122054 53 0 0.9 6.1 0.00 0.01 0.00 78 1019.7
20260502121601 53 1 1.7 9.6 0.00 0.01 0.00 79 1019.7
20260502121056 53 0 0.9 9.6 0.00 0.01 0.00 79 1019.6
20260502120555 53 1 3.5 9.6 0.00 0.01 0.00 80 1019.6
20260502120112 53 0 0.9 9.6 0.00 0.01 0.00 80 1019.6
20260502115558 53 34 2.6 9.6 0.00 0.01 0.00 81 1019.5
20260502115055 53 0 0.0 2.6 0.00 0.01 0.00 81 1019.6
20260502114612 53 0 0.0 0.0 0.00 0.01 0.00 82 1019.5
20260502114055 53 0 0.0 0.0 0.00 0.01 0.00 83 1019.6
20260502113555 52 0 0.0 0.0 0.00 0.01 0.00 83 1019.5
20260502113114 52 0 0.0 0.0 0.00 0.01 0.00 83 1019.4
20260502112554 53 0 0.0 0.0 0.00 0.01 0.00 83 1019.4
20260502112054 53 0 0.0 2.6 0.00 0.01 0.00 82 1019.3
20260502111604 53 0 0.0 3.5 0.00 0.01 0.00 82 1019.3
20260502111058 53 0 0.0 3.5 0.00 0.01 0.00 82 1019.4
20260502110556 53 0 0.0 6.1 0.00 0.01 0.00 81 1019.3
20260502110104 54 0 0.9 6.1 0.00 0.01 0.00 81 1019.2
20260502105556 54 310 1.7 6.1 0.00 0.01 0.00 81 1019.2
20260502105055 54 301 1.7 6.1 0.00 0.01 0.00 81 1019.1
20260502104556 54 296 2.6 6.1 0.00 0.01 0.00 80 1019.1
20260502104057 54 299 0.9 6.1 0.00 0.01 0.00 80 1019.1
20260502103555 55 315 0.0 6.1 0.00 0.01 0.00 79 1019.1
20260502103112 55 304 2.6 6.1 0.00 0.01 0.00 79 1019.1
20260502102557 55 311 0.9 7.0 0.00 0.01 0.00 79 1019.1
20260502102055 55 309 2.6 7.0 0.00 0.01 0.00 79 1018.9
20260502101606 55 309 3.5 7.8 0.00 0.01 0.00 79 1018.9
20260502101055 55 316 4.3 7.8 0.00 0.01 0.00 79 1018.8
20260502100552 55 299 3.5 7.0 0.00 0.01 0.00 78 1018.8
20260502091054 55 310 3.5 7.0 0.00 0.01 0.00 75 1018.4
20260502090553 55 327 3.5 7.8 0.00 0.01 0.00 75 1018.3
20260502090108 55 330 3.5 7.8 0.00 0.01 0.00 75 1018.3
20260502071055 55 0 0.0 2.6 0.00 0.01 0.00 66 1018.2
20260502070555 55 0 0.0 2.6 0.00 0.01 0.00 65 1018.2
20260502065555 56 0 0.0 0.0 0.00 0.01 0.01 62 1018.2
20260502065055 57 0 0.0 0.0 0.00 0.01 0.01 61 1018.0
20260502064555 57 0 0.0 0.0 0.00 0.01 0.01 60 1018.1
20260502064055 58 0 0.0 0.0 0.00 0.01 0.01 58 1018.0
20260502063555 57 0 0.0 0.0 0.00 0.01 0.01 58 1018.0
20260502063121 57 0 0.0 0.0 0.00 0.01 0.01 61 1018.0
20260502062553 58 0 0.0 0.0 0.00 0.01 0.01 62 1018.0
20260502062053 58 0 0.0 0.0 0.00 0.01 0.01 59 1018.0
20260502061555 58 0 0.0 0.0 0.00 0.01 0.01 58 1017.9
20260502061054 59 0 0.0 0.0 0.00 0.01 0.01 58 1018.0
20260502060553 59 0 0.0 0.0 0.00 0.01 0.01 56 1017.8
20260502060106 60 0 0.0 0.0 0.00 0.01 0.01 56 1017.7
20260502055556 60 0 0.0 0.0 0.00 0.13 0.01 54 1017.7
20260502055056 59 0 0.0 0.0 0.00 0.13 0.01 51 1017.7
20260502054615 59 0 0.0 0.0 0.00 0.13 0.01 55 1017.6
20260502054053 60 0 0.0 0.0 0.00 0.13 0.01 53 1017.6
20260502053555 61 0 0.0 3.5 0.00 0.13 0.01 49 1017.6
20260502053101 62 0 0.0 3.5 0.00 0.13 0.01 46 1017.5
20260502052553 63 0 0.0 0.0 0.00 0.13 0.01 42 1017.4
20260502052053 63 0 0.0 0.0 0.00 0.13 0.01 39 1017.3
20260502051554 63 0 0.0 0.0 0.00 0.13 0.01 39 1017.3
20260502051055 62 0 0.0 0.0 0.00 0.13 0.01 41 1017.3
20260502050555 63 0 0.0 3.5 0.00 0.13 0.01 41 1017.2
20260502050054 63 0 0.9 3.5 0.00 0.13 0.01 40 1017.2
20260502045559 64 0 0.0 0.0 0.00 0.30 0.01 39 1017.1
20260502045052 64 0 0.0 0.9 0.00 0.30 0.01 37 1017.1
20260502044558 64 0 0.0 0.9 0.00 0.30 0.01 37 1017.1
20260502044057 64 0 0.0 0.0 0.00 0.30 0.01 39 1017.0
20260502043554 64 0 0.0 3.5 0.00 0.30 0.01 37 1017.0
20260502043107 65 0 0.0 3.5 0.00 0.30 0.01 37 1017.0
20260502042557 65 0 0.0 3.5 0.00 0.30 0.01 36 1017.0
20260502042056 65 0 0.0 2.6 0.00 0.30 0.01 34 1017.1
20260502041556 65 0 0.0 0.0 0.00 0.30 0.01 37 1017.1
20260502041055 65 0 0.0 0.0 0.00 0.30 0.01 35 1017.0
20260502040554 66 0 0.0 4.3 0.00 0.30 0.01 34 1016.8
20260502040055 66 0 0.0 4.3 0.00 0.30 0.01 33 1016.8
20260502035554 67 0 0.0 0.0 0.00 0.46 0.01 32 1016.8
20260502035055 68 0 0.0 0.0 0.00 0.46 0.01 31 1016.6
20260502034557 68 0 0.0 5.2 0.00 0.46 0.01 29 1016.6
20260502034054 67 0 0.0 7.0 0.00 0.46 0.01 29 1016.4
20260502033554 67 328 2.6 7.0 0.00 0.46 0.01 30 1016.4
20260502033052 66 0 0.0 0.0 0.00 0.46 0.01 34 1016.3
20260502032553 66 0 0.0 0.9 0.00 0.46 0.01 35 1016.3
20260502032055 66 0 0.0 0.9 0.00 0.46 0.01 36 1016.3
20260502031555 66 0 0.0 0.9 0.00 0.46 0.01 36 1016.2
20260502031054 66 0 0.0 0.0 0.00 0.46 0.01 36 1016.1
20260502030551 66 0 0.0 0.0 0.00 0.46 0.01 37 1016.2
20260502030106 67 0 0.0 0.0 0.00 0.46 0.01 34 1016.0
20260502025552 67 0 0.0 0.0 0.00 0.50 0.01 34 1016.0
20260502025057 67 0 0.0 0.9 0.00 0.50 0.01 33 1015.9
20260502024554 67 0 0.0 0.9 0.00 0.50 0.01 33 1015.9
20260502024055 67 0 0.0 0.9 0.00 0.50 0.01 34 1015.9
20260502023556 66 0 0.0 0.9 0.00 0.50 0.01 35 1015.8
20260502023057 66 0 0.0 0.9 0.00 0.50 0.01 36 1015.8
20260502022554 66 0 0.0 0.0 0.00 0.50 0.01 37 1015.8
20260502022054 67 0 0.0 0.0 0.00 0.50 0.01 37 1015.7
20260502021555 67 0 0.0 0.0 0.00 0.50 0.01 35 1015.6
20260502021056 68 0 0.0 0.0 0.00 0.50 0.01 35 1015.5
20260502020557 68 0 0.0 0.0 0.00 0.50 0.01 33 1015.5
20260502020054 69 0 0.0 2.6 0.00 0.50 0.01 33 1015.4
20260502015553 70 0 0.0 3.5 0.00 0.54 0.01 32 1015.4
20260502015055 70 0 0.0 6.1 0.00 0.54 0.01 30 1015.3
20260502014555 71 0 0.0 6.1 0.00 0.54 0.01 30 1015.3
20260502014052 72 0 0.0 5.2 0.00 0.54 0.01 30 1015.3
20260502013555 72 0 0.0 5.2 0.00 0.54 0.01 30 1015.2
20260502013057 73 0 0.9 7.0 0.00 0.54 0.01 28 1015.2
20260502012556 73 0 0.0 7.0 0.00 0.54 0.01 29 1015.2
20260502012055 74 302 0.9 6.1 0.00 0.54 0.01 27 1015.1
20260502011556 74 0 0.0 6.1 0.00 0.54 0.01 27 1015.0
20260502011054 74 0 1.7 6.1 0.00 0.54 0.01 27 1014.9
20260502010556 75 281 0.0 3.5 0.00 0.54 0.01 26 1015.0
20260502010126 75 0 0.0 6.1 0.00 0.54 0.01 26 1014.9
20260502005554 75 0 0.9 7.0 0.00 0.58 0.01 26 1014.9
20260502005057 75 268 0.0 7.0 0.00 0.58 0.01 28 1014.9
20260502004556 75 0 0.9 7.0 0.00 0.58 0.01 26 1014.9
20260502004054 76 283 0.0 7.0 0.00 0.58 0.01 26 1014.8
20260502003555 76 0 0.9 7.8 0.00 0.58 0.01 25 1014.7
20260502003059 76 0 2.6 7.8 0.00 0.58 0.01 27 1014.8
20260502002555 76 0 4.3 7.8 0.00 0.58 0.01 25 1014.8
20260502002055 76 0 0.0 2.6 0.00 0.58 0.01 27 1014.8
20260502001553 75 0 0.0 4.3 0.00 0.58 0.01 29 1014.7
20260502001052 75 0 0.9 4.3 0.00 0.58 0.01 26 1014.8
20260502000554 75 0 0.0 3.5 0.00 0.58 0.01 27 1014.6
20260502000057 76 0 0.0 3.5 0.00 0.58 0.01 26 1014.7
20260501235554 76 0 0.0 3.5 0.00 0.73 0.01 24 1014.8
20260501235055 76 0 0.0 5.2 0.00 0.73 0.01 24 1014.8
20260501234555 76 0 0.0 5.2 0.00 0.73 0.01 28 1014.7
20260501234053 76 0 2.6 5.2 0.00 0.73 0.01 23 1014.6
20260501233552 77 0 0.0 1.7 0.00 0.73 0.01 26 1014.7
20260501233058 77 0 0.0 3.5 0.00 0.73 0.01 28 1014.6
20260501232554 77 0 0.0 3.5 0.00 0.73 0.01 28 1014.7
20260501232052 77 0 0.0 3.5 0.00 0.73 0.01 31 1014.6
20260501231558 77 258 0.0 3.5 0.00 0.73 0.01 27 1014.7
20260501231052 76 283 0.0 4.3 0.00 0.73 0.01 32 1014.6
20260501230555 75 0 0.0 4.3 0.00 0.73 0.01 33 1014.7
20260501230059 75 359 0.0 7.0 0.00 0.73 0.01 29 1014.7
20260501225555 75 0 0.0 7.0 0.00 0.73 0.01 33 1014.7
20260501225053 74 0 3.5 7.0 0.00 0.73 0.01 31 1014.7
20260501224554 75 5 0.9 7.0 0.00 0.73 0.01 31 1014.7
20260501224053 76 0 0.0 4.3 0.00 0.73 0.01 33 1014.7
20260501223553 77 0 0.0 7.0 0.00 0.73 0.01 34 1014.7
20260501223107 76 0 0.0 7.0 0.00 0.73 0.01 32 1014.7
20260501222556 76 0 0.9 7.0 0.00 0.73 0.01 33 1014.8
20260501222055 76 0 0.0 4.3 0.00 0.73 0.01 33 1014.7
20260501221554 75 0 0.0 5.2 0.00 0.73 0.01 35 1014.7
20260501221056 75 0 0.0 7.0 0.00 0.73 0.01 35 1014.8
20260501220552 74 0 1.7 7.0 0.00 0.73 0.01 36 1014.9
20260501220054 74 115 0.0 6.1 0.00 0.73 0.01 37 1015.0
20260501215558 74 0 1.7 6.1 0.00 0.73 0.01 39 1015.1
20260501215057 73 0 0.0 0.9 0.00 0.73 0.01 40 1015.1
20260501214557 72 0 0.0 7.0 0.00 0.73 0.01 40 1015.3
20260501214055 71 0 0.0 7.0 0.00 0.73 0.01 40 1015.3
20260501213554 71 99 0.0 4.3 0.00 0.73 0.01 40 1015.3
20260501213108 72 30 0.0 4.3 0.00 0.73 0.01 40 1015.4
20260501212554 72 0 0.0 5.2 0.00 0.73 0.01 39 1015.5
20260501212055 73 0 0.9 6.1 0.00 0.73 0.01 39 1015.6
20260501211604 73 7 0.0 7.8 0.00 0.73 0.01 37 1015.7
20260501211054 73 41 3.5 7.8 0.00 0.73 0.01 37 1015.8
20260501210556 72 77 2.6 6.1 0.00 0.73 0.01 40 1015.8
20260501210058 72 7 1.7 6.1 0.00 0.73 0.01 43 1015.9
20260501205554 72 32 0.9 6.1 0.00 0.73 0.01 42 1015.9
20260501205057 72 67 1.7 6.1 0.00 0.73 0.01 43 1016.0
20260501204607 72 0 0.0 5.2 0.00 0.73 0.01 44 1016.1
20260501204056 72 0 0.9 6.1 0.00 0.73 0.01 43 1016.0
20260501203554 72 0 1.7 6.1 0.00 0.73 0.01 44 1016.1
20260501203106 72 102 0.9 5.2 0.00 0.73 0.01 45 1016.1
20260501202554 71 0 0.0 5.2 0.00 0.73 0.01 45 1016.1
20260501202057 71 6 0.9 5.2 0.00 0.73 0.01 49 1016.1
20260501201559 71 0 0.0 6.1 0.00 0.73 0.01 46 1016.2
20260501201058 70 0 3.5 6.1 0.00 0.73 0.01 46 1016.2
20260501200556 70 0 2.6 7.0 0.00 0.73 0.01 48 1016.3
20260501200055 70 58 0.9 7.8 0.00 0.73 0.01 47 1016.3
20260501195554 70 136 3.5 8.7 0.00 0.73 0.01 46 1016.3
20260501195055 69 75 4.3 8.7 0.00 0.73 0.01 50 1016.3
20260501194555 69 20 1.7 7.8 0.00 0.73 0.01 51 1016.3
20260501194054 69 8 1.7 7.8 0.00 0.73 0.01 51 1016.3
20260501193557 69 1 3.5 7.0 0.00 0.73 0.01 51 1016.5
20260501193055 69 0 0.0 7.8 0.00 0.73 0.01 54 1016.6
20260501192555 69 0 0.9 7.8 0.00 0.73 0.01 51 1016.6
20260501192054 69 15 0.9 7.8 0.00 0.73 0.01 50 1016.8
20260501191553 68 0 0.9 5.2 0.00 0.73 0.01 51 1016.9
20260501191055 68 0 0.0 5.2 0.00 0.73 0.01 52 1017.0
20260501190553 68 0 0.9 6.1 0.00 0.73 0.01 53 1016.9
20260501190058 68 46 0.9 6.1 0.00 0.73 0.01 52 1017.0
20260501185555 68 122 2.6 6.1 0.00 0.73 0.01 52 1017.1
20260501185055 68 60 1.7 6.1 0.00 0.73 0.01 51 1017.3
20260501184602 68 0 0.0 6.1 0.00 0.73 0.01 52 1017.3
20260501184054 67 0 1.7 8.7 0.00 0.73 0.01 54 1017.3
20260501183555 67 127 1.7 8.7 0.00 0.73 0.01 55 1017.3
20260501183101 67 37 1.7 8.7 0.00 0.73 0.01 58 1017.3
20260501182555 66 0 1.7 6.1 0.00 0.73 0.01 53 1017.4
20260501182055 67 5 1.7 6.1 0.00 0.73 0.01 56 1017.3
20260501181618 66 5 1.7 6.1 0.00 0.73 0.01 57 1017.4
20260501181054 66 0 0.0 6.1 0.00 0.73 0.01 56 1017.5
20260501180555 66 44 0.0 6.1 0.00 0.73 0.01 57 1017.5
20260501175556 65 37 0.0 4.3 0.00 0.73 0.01 59 1017.5
20260501175056 64 63 0.0 5.2 0.00 0.73 0.01 59 1017.4
20260501174555 65 0 1.7 5.2 0.00 0.73 0.01 59 1017.6
20260501174056 65 55 0.9 5.2 0.00 0.73 0.01 61 1017.6
20260501173554 64 58 0.9 7.0 0.00 0.73 0.01 62 1017.6
20260501173057 64 0 1.7 7.0 0.00 0.73 0.01 62 1017.6
20260501172555 63 0 2.6 7.0 0.00 0.73 0.01 64 1017.6
20260501172054 63 0 0.9 6.1 0.00 0.73 0.01 63 1017.6
20260501171601 63 56 0.9 6.1 0.00 0.73 0.01 66 1017.6
20260501171055 62 0 0.9 6.1 0.00 0.73 0.01 65 1017.7
20260501170557 62 54 0.0 6.1 0.00 0.73 0.01 66 1017.6
20260501170112 62 77 2.6 7.0 0.00 0.73 0.01 65 1017.6
20260501165555 62 56 2.6 7.0 0.00 0.73 0.01 67 1017.6
20260501165054 62 49 1.7 7.0 0.00 0.73 0.01 68 1017.5
20260501164600 61 56 1.7 6.1 0.00 0.73 0.01 68 1017.4
20260501164055 61 0 2.6 6.1 0.00 0.73 0.01 71 1017.4
20260501163554 60 63 1.7 6.1 0.00 0.73 0.01 72 1017.4
20260501163059 60 0 1.7 6.1 0.00 0.73 0.01 71 1017.4